This is the latest recevied weather packets stored in our database for station/object IR4UCA. If no packets are shown the sender has not sent any weather packets the latest 10 day(s).
| Time | Temp. | Humidity | Pressure | Rain* | Wind** | Luminosity | Snow |
|---|---|---|---|---|---|---|---|
| 1777957783 | 15.56° C | 78% | 1012.7 hPa | 0 mm | - | - | - |
| 1777957183 | 15.56° C | 76% | 1012.7 hPa | 0 mm | - | - | - |
| 1777956583 | 16.11° C | 74% | 1012.5 hPa | 0 mm | - | - | - |
| 1777955983 | 16.11° C | 73% | 1012.5 hPa | 0 mm | - | - | - |
| 1777955383 | 16.67° C | 71% | 1012.6 hPa | 0 mm | - | - | - |
| 1777928384 | 20° C | 57% | 1015.3 hPa | 0 mm | - | - | - |
| 1777927786 | 20° C | 57% | 1015.2 hPa | 0 mm | - | - | - |
| 1777927184 | 20° C | 56% | 1015.2 hPa | 0 mm | - | - | - |
| 1777926584 | 20° C | 56% | 1015.1 hPa | 0 mm | - | - | - |
| 1777925384 | 20° C | 56% | 1015 hPa | 0 mm | - | - | - |
| 1777924784 | 20° C | 55% | 1015 hPa | 0 mm | - | - | - |
| 1777924184 | 20.56° C | 55% | 1014.8 hPa | 0 mm | - | - | - |
| 1777923584 | 20.56° C | 54% | 1014.7 hPa | 0 mm | - | - | - |
| 1777922985 | 20.56° C | 53% | 1014.8 hPa | 0 mm | - | - | - |
| 1777922385 | 21.11° C | 51% | 1014.6 hPa | 0 mm | - | - | - |
| 1777921784 | 21.11° C | 50% | 1014.7 hPa | 0 mm | - | - | - |
| 1777921184 | 21.11° C | 49% | 1014.6 hPa | 0 mm | - | - | - |
| 1777920585 | 21.67° C | 48% | 1014.7 hPa | 0 mm | - | - | - |
| 1777919984 | 21.67° C | 47% | 1014.7 hPa | 0 mm | - | - | - |
| 1777919384 | 22.22° C | 47% | 1014.6 hPa | 0 mm | - | - | - |
| 1777918184 | 22.78° C | 45% | 1014.6 hPa | 0 mm | - | - | - |
| 1777917584 | 23.33° C | 44% | 1014.5 hPa | 0 mm | - | - | - |
| 1777916984 | 23.33° C | 43% | 1014.4 hPa | 0 mm | - | - | - |
| 1777916384 | 23.33° C | 42% | 1014.5 hPa | 0 mm | - | - | - |
| 1777914583 | 24.44° C | 39% | 1014.6 hPa | 0 mm | - | - | - |
* Rain latest hour (hover to see other rain measurements)
** Current wind speed in m/s (hover to see current wind gust speed)